[Date Prev][Date Next][Thread Prev][Thread Next] - [Date Index][Thread Index][Author Index]
2 Line ISS Keps 1-30
- Subject: [sarex] 2 Line ISS Keps 1-30
- From: "Dave Larsen PhD" <doc@xxxxxxxxxxx>
- Date: Sun, 29 Jan 2006 18:44:37 -0800
ISS
1 25544U 98067A 06029.98954981 .00012805 00000-0 90704-4 0 2476
2 25544 051.6429 178.1632 0009478 211.3831 249.9498 15.74342307411382
----
Via the sarex mailing list at AMSAT.ORG courtesy of AMSAT-NA.
To unsubscribe, send "unsubscribe sarex" to Majordomo@amsat.org
AMSAT Home